Velovelo
Português Nederlands 日本語 中文
Español English čeština slovenčina
русский italiano polski norsk
français Deutsch svenska عربي
 
 предыдущая страница
 отправить друзьям
 распечатать
 ---> La Scott 1000 Bosses 2010 : Résultats du 135 km

ClDosNomPrénomCat.C.c..Temps.Ecart
1 1 ROUX NICOLAS B 1 3:43:56 0:00:00
2 58 CHEVALIER PIERRE C 1 3:47:02 0:03:06
3 4 FRITSCH NICOLAS B 2 3:47:32 0:03:36
4 93 DE VECCHI DAVID B 3 3:47:56 0:04:00
5 3 HALGAND PATRICE B 4 3:47:56 0:04:00
6 135 GILLY HERVÉ C 2 3:51:56 0:08:00
7 14 CHAVENT ROLAND C 3 3:51:57 0:08:01
8 683 BOUCHET ARNAUD A 1 3:51:59 0:08:03
9 364 OSTIAN FREDERIC B 5 3:52:00 0:08:04
10 46 BONNEFOY CEDRIC A 2 3:52:01 0:08:05
11 8 MESTRE BRUNO C 4 3:52:03 0:08:07
12 145 DULAURENT OLIVIER B 6 3:52:03 0:08:07
13 7 OUGIER NICOLAS B 7 3:53:01 0:09:05
14 694 GOMES AUGUSTO B 8 3:53:17 0:09:21
15 112 BOSSLER JEAN FRANCOIS B 9 3:54:41 0:10:45
16 108 LHENRY THIBAUT A 3 3:54:41 0:10:45
17 109 LAGIER DORIAN A 4 3:54:42 0:10:46
18 54 BIBOLLET MICHEL C 5 3:55:43 0:11:47
19 118 MALAGIES LAURENT B 10 3:57:23 0:13:27
20 565  ?  ?  ? 1 3:57:44 0:13:48
21 28 ROUX JEAN-PASCAL C 6 3:58:06 0:14:10
22 99 BEAUDOIN ANTHONY A 5 3:58:06 0:14:10
23 143 DE SAINT JEAN MAGDALENA W2 1 3:58:07 0:14:11
24 264 SENAC JEAN-CHARLES A 6 3:58:08 0:14:12
25 509 OSKWAREK SYLVAIN D 1 3:58:08 0:14:12
26 289 LECUYER FRANCK C 7 3:58:25 0:14:29
27 6 EKINDJIAN STEPHANE B 11 3:58:25 0:14:29
28 322 DREVON ANTOINE A 7 3:58:26 0:14:30
29 50 BARTHELEMY BERNARD C 8 3:58:26 0:14:30
30 119 COUDRE KARL C 9 3:58:27 0:14:31
31 316 BORRION REMI B 12 3:58:27 0:14:31
32 9 JOLY XAVIER B 13 3:58:28 0:14:32
33 94 LEMAIRE FABRICE B 14 3:58:28 0:14:32
34 343 LUBACH FREDERIC A 8 3:58:29 0:14:33
35 138 BREMONT ARNAUD B 15 3:58:35 0:14:39
36 283 GIORGALLA SERGE D 2 3:58:48 0:14:52
37 550 FAVARIO BORIS A 9 3:58:49 0:14:53
38 441 MARIJON NICOLAS B 16 3:58:49 0:14:53
39 688 MAUBLANC SYLVAIN B 17 3:58:56 0:15:00
40 11 PASCAL YOHAN B 18 3:58:56 0:15:00
41 147 RADENAC EMMANUEL B 19 3:58:57 0:15:01
42 27 FRICKER DANIEL C 10 3:58:58 0:15:02
43 92 BRIAND DOMINIQUE D 3 3:58:59 0:15:03
44 12 BANCEL ERIC B 20 3:59:01 0:15:05
45 84 BRANDY GAËL C 11 3:59:14 0:15:18
46 461 LAFOY DOMINIQUE C 12 3:59:50 0:15:54
47 155 QUINTILLA JOSÉ A 10 3:59:50 0:15:54
48 646 PIRIOU YANNICK A 11 3:59:53 0:15:57
49 554 BUCHOT JONAS A 12 4:00:13 0:16:17
50 659 MARULAZ SYLVAIN B 21 4:00:13 0:16:17
51 146 D’OLIVEIRA FELISMINO C 13 4:01:03 0:17:07
52 125 HUPEL YVES C 14 4:01:04 0:17:08
53 540 PANEL OLIVIER B 22 4:01:06 0:17:10
54 511 HAAS FABIEN A 13 4:01:24 0:17:28
55 2 LABY JEREMY A 14 4:01:26 0:17:30
56 662 LOUET CHRISTOPHE C 15 4:02:03 0:18:07
57 156 JOYEUX JULIEN A 15 4:02:04 0:18:08
58 25 HENON GUY D 4 4:02:25 0:18:29
59 91 D’ANGIO GERARD C 16 4:02:26 0:18:30
60 229 SALMON JEAN-YVES C 17 4:02:36 0:18:40
61 53 COURTHALIAC DENIS B 23 4:02:56 0:19:00
62 158 GALLEGO MICHAEL B 24 4:03:30 0:19:34
63 653 MOULIN DIDIER C 18 4:04:41 0:20:45
64 60 PELIZZARI FLORENT A 16 4:05:03 0:21:07
65 111 MAILLOT GREGORY A 17 4:05:03 0:21:07
66 32 NAVARRO CHRISTIAN C 19 4:05:12 0:21:16
67 96 CLAMOUSE JÉRÔME B 25 4:05:16 0:21:20
68 592 FOUGEROUSE LUC C 20 4:05:18 0:21:22
69 87 KAMERZIN STEPHANE B 26 4:05:23 0:21:27
70 126 DEBIZE ROGER D 5 4:05:24 0:21:28
71 85 VIAL PASCAL D 6 4:05:47 0:21:51
72 206 DUFOSSE DAVID C 21 4:05:48 0:21:52
73 191 GISSINGER SEBASTIEN B 27 4:05:50 0:21:54
74 663 GALLA STEPHANE B 28 4:05:50 0:21:54
75 51 OURNIER PIERRE A 18 4:05:51 0:21:55
76 105 KINTZ ALEXANDRE B 29 4:05:52 0:21:56
77 267 PEGEOT VINCENT B 30 4:05:53 0:21:57
78 59 MARTIN JEAN CLAUDE B 31 4:05:55 0:21:59
79 675 TISSANDIER J BAPTISTE A 19 4:06:18 0:22:22
80 26 MOTTET RAPHAËL B 32 4:06:18 0:22:22
81 116 DELARACE PHILIPPE C 22 4:06:20 0:22:24
82 40 LANCELOT MICHEL D 7 4:06:54 0:22:58
83 133 LUBESPERE JEAN FRANCOIS D 8 4:06:55 0:22:59
84 335 AUBERT JÉROME C 23 4:07:28 0:23:32
85 39 PERRA HENRI C 24 4:07:29 0:23:33
86 45 FORISSIER SYLVAIN B 33 4:07:39 0:23:43
87 122 GLEIZAL FLORENT A 20 4:07:45 0:23:49
88 348 CHAUVETEAU FRANCK B 34 4:07:54 0:23:58
89 295 BRESSET DAVID B 35 4:07:56 0:24:00
90 161 LELEU GEOFFROY B 36 4:08:16 0:24:20
91 297 FUGIER-BERNARD NOEL D 9 4:08:50 0:24:54
92 114 MERLE SÉBASTIEN B 37 4:09:55 0:25:59
93 117 ARELLANO PASCAL C 25 4:11:34 0:27:38
94 43 MEUNIER MAXIME A 21 4:11:34 0:27:38
95 258 DOCQUOIS FRANCK C 26 4:11:35 0:27:39
96 424 DUHAUT PATRICK D 10 4:11:35 0:27:39
97 317 DAVID GUILLAUME C 27 4:12:36 0:28:40
98 102 GIARDI FRANCOIS D 11 4:12:36 0:28:40
99 209 IMBERT PHILIPPE I 1 4:12:36 0:28:40
100 385 PATTINIER MANUEL C 28 4:12:38 0:28:42
101 142 RIVIERE PHILIPPE C 29 4:12:48 0:28:52
102 144 MARTINEAU DIDIER C 30 4:13:06 0:29:10
103 175 SCHWAB PATRICK E 1 4:13:07 0:29:11
104 439 REZZÉ ALAIN C 31 4:13:08 0:29:12
105 121 RICHARD STANISLAS C 32 4:13:09 0:29:13
106 282 CARRIER GERALD B 38 4:13:09 0:29:13
107 383 COQUARD FREDERIC A 22 4:13:10 0:29:14
108 552 FARRUGIO JEAN-PIERRE D 12 4:13:26 0:29:30
109 253 PETERS JIM B 39 4:13:26 0:29:30
110 345 BOYARD PIERRE A 23 4:13:27 0:29:31
111 52 CELET CHRISTOPHE B 40 4:13:31 0:29:35
112 575 TERRIER PHILIPPE C 33 4:13:47 0:29:51
113 459 BOURCIER JEAN MICHEL C 34 4:13:48 0:29:52
114 232 BOTTINI YVES D 13 4:13:48 0:29:52
115 622 PEIXOTO JULIO D 14 4:13:57 0:30:01
116 362 COLIN HERVÉ C 35 4:14:05 0:30:09
117 103 FRAISSINET NICOLAS B 41 4:14:11 0:30:15
118 657 QUELIN GERARD D 15 4:14:12 0:30:16
119 349 CAPELLE LUC C 36 4:14:18 0:30:22
120 312 GONCALVES SERGE C 37 4:14:29 0:30:33
121 202 BAROUDEL FREDERIC C 38 4:14:29 0:30:33
122 626 SERTHELON DAMIEN B 42 4:14:30 0:30:34
123 422 ROMANET PIERRE C 39 4:14:32 0:30:36
124 131 RODRIGUES ANTONIO D 16 4:14:51 0:30:55
125 481 RIJAN ANTHONY A 24 4:14:59 0:31:03
126 571 STIBLER YANN A 25 4:14:59 0:31:03
127 55 VINCENT OLIVIER C 40 4:15:04 0:31:08
128 609 GOUSSANT FLORENT B 43 4:15:04 0:31:08
129 623 TAMINIAU ANDRE B 44 4:15:21 0:31:25
130 487 VALLET GUILLAUME B 45 4:15:40 0:31:44
131 269 BIESUZ BRUNO D 17 4:15:40 0:31:44
132 228 DHAUSSY FRÉDÉRIC C 41 4:15:42 0:31:46
133 475 HAAS CEDRIC A 26 4:15:45 0:31:49
134 37 BERAUD RICHARD D 18 4:15:47 0:31:51
135 42 LEBRAT DAVID A 27 4:15:49 0:31:53
136 56 DEL CASTILLO JOSE E 2 4:16:15 0:32:19
137 522 JANUEL FRANCK A 28 4:17:36 0:33:40
138 414 MERLE OLIVIER C 42 4:17:50 0:33:54
139 593 ARNAUD CEDRIC B 46 4:18:02 0:34:06
140 496 LAROUX CHRISTOPHE B 47 4:18:25 0:34:29
141 458 SONIER YVAN C 43 4:18:25 0:34:29
142 449 BARDIN PHILIPPE D 19 4:18:26 0:34:30
143 379 EUGENE CYRILLE B 48 4:18:37 0:34:41
144 401 FEREIRE BRUNO C 44 4:18:38 0:34:42
145 474 CARLE ERIC B 49 4:19:18 0:35:22
146 392 JACQUIER REMY C 45 4:19:51 0:35:55
147 421 DIERKENS VIKEN B 50 4:19:51 0:35:55
148 603 VIGIER LAURENT C 46 4:19:51 0:35:55
149 127 FAURIE ERIC C 47 4:19:51 0:35:55
150 674 BRET YANNICK B 51 4:19:51 0:35:55
151 200 JOUNIAUX HERVE I 2 4:19:51 0:35:55
152 244 GONTHIER JULIEN A 29 4:19:51 0:35:55
153 1034 NAVEZ GREGORY B 52 4:19:52 0:35:56
154 29 VILLARD JACQUES D 20 4:19:53 0:35:57
155 363 BARREAU STEPHANE C 48 4:19:54 0:35:58
156 437 BRAGA PATRICE C 49 4:19:56 0:36:00
157 41 SAINT GERMAIN OLIVIER C 50 4:20:06 0:36:10
158 521 DUMAY BERTRAND C 51 4:20:06 0:36:10
159 296 FERNANDEZ DANIEL C 52 4:20:07 0:36:11
160 101 CHARRE PASCAL B 53 4:20:07 0:36:11
161 460 MAILLOT PIERRE C 53 4:20:07 0:36:11
162 199 LESPAGNOL LAURENT I 3 4:20:08 0:36:12
163 172 MAHE GILLES C 54 4:20:21 0:36:25
164 120 NADAUD DOMINIQUE E 3 4:20:30 0:36:34
165 261 LACARIN PASCAL C 55 4:20:47 0:36:51
166 170 CLEMENT LAURENT C 56 4:20:52 0:36:56
167 497 BESSON OLIVIER C 57 4:21:51 0:37:55
168 515 HALOUZE JEAN FRANCOIS B 54 4:21:54 0:37:58
169 588 NIOLLET ROMUALD A 30 4:21:56 0:38:00
170 636 GARDEZ PATRICK B 55 4:22:03 0:38:07
171 204 AGNERAY AURÉLIEN B 56 4:22:06 0:38:10
172 453 RIJAN EMMANUEL C 58 4:22:25 0:38:29
173 604 THOMAS JOHN C 59 4:22:25 0:38:29
174 139 STOTZ PASCAL B 57 4:22:27 0:38:31
175 533 LACORDAIRE ALAIN C 60 4:22:31 0:38:35
176 266 GUERAUD PATRICK B 58 4:22:34 0:38:38
177 173 MAIRE ROMARIC A 31 4:23:23 0:39:27
178 330 CHAUTEMPS ERIC B 59 4:23:25 0:39:29
179 89 CITRON DAVID B 60 4:23:25 0:39:29
180 10 RUBAT DU MERAC HERVE C 61 4:23:25 0:39:29
181 38 CHAPUIS JEAN PIERRE E 4 4:23:26 0:39:30
182 49 RICHARD MICHEL E 5 4:23:26 0:39:30
183 473 MICHALON HERVÉ B 61 4:23:27 0:39:31
184 520 TOURNIER JEAN CLAUDE C 62 4:23:28 0:39:32
185 62 THIRY FREDERIC B 62 4:23:40 0:39:44
186 371 CLEYET-MAREL ERNEST D 21 4:24:00 0:40:04
187 667 JEANTET GUILLAUME A 32 4:24:28 0:40:32
188 354 MIRABELLE DOMINIQUE C 63 4:25:04 0:41:08
189 310 DAVESNE PIERRE-ANTOINE A 33 4:25:05 0:41:09
190 235 BERERD DAVID B 63 4:25:08 0:41:12
191 340 LANDOT DAVID B 64 4:25:14 0:41:18
192 676 TOUSSAINT FABRICE C 64 4:25:15 0:41:19
193 583 CHEILLON JEREMY A 34 4:25:19 0:41:23
194 534 GIRARD CYRIL B 65 4:25:21 0:41:25
195 178 PEREZ ANDRE I 4 4:25:22 0:41:26
196 180 NEYRAND PAUL D 22 4:25:25 0:41:29
197 198 GRISEL LAURENT C 65 4:25:38 0:41:42
198 98 GARD CHRISTOPHE C 66 4:25:40 0:41:44
199 656 CALORI PIERRE D 23 4:25:46 0:41:50
200 189 BERNAGAUD CYRILLE B 66 4:25:55 0:41:59
201 157 DUBREUIL XAVIER A 35 4:25:58 0:42:02
202 262 COUSIN LAURENT C 67 4:26:09 0:42:13
203 150 MERCIER JEAN-CLAUDE E 6 4:26:10 0:42:14
204 361 SAINTEMARIE PIERRE D 24 4:26:10 0:42:14
205 128 PRODANU DANIEL D 25 4:26:43 0:42:47
206 82 ASTIC ANTOINE B 67 4:26:51 0:42:55
207 110 BARBEROUX ALEXANDRE A 36 4:26:55 0:42:59
208 226 MARNEFFE XAVIER E 7 4:27:12 0:43:16
209 324 VIALETTES PATRICK C 68 4:27:12 0:43:16
210 311 ROUQUIER STEPHANE B 68 4:27:47 0:43:51
211 507 CARLE JULIEN A 37 4:27:53 0:43:57
212 124 SIMON YVES D 26 4:28:20 0:44:24
213 429 AZAIS OLIVIER C 69 4:28:20 0:44:24
214 152 PUCCIANTI PASCAL D 27 4:28:21 0:44:25
215 641 LABONDE RAPHAEL A 38 4:28:27 0:44:31
216 210 GEERTZ MARCEL B 69 4:28:27 0:44:31
217 614 MOREL DAVID A 39 4:28:28 0:44:32
218 493 LAUFENBUCHLER GAETAN C 70 4:28:29 0:44:33
219 670 CHAPPUIS FABIEN A 40 4:28:30 0:44:34
220 576 AULAGNE NICOLAS B 70 4:28:32 0:44:36
221 214 MOURIN FRÉDÉRIC B 71 4:28:36 0:44:40
222 366 SCHEIDECKER RAPHAEL B 72 4:28:39 0:44:43
223 367 SOULAS PHILIPPE B 73 4:28:46 0:44:50
224 323 AURECHE ETIENNE D 28 4:29:05 0:45:09
225 600 SIMEON ERICK C 71 4:29:09 0:45:13
226 136 LESAGE PHILIPPE C 72 4:29:09 0:45:13
227 692 LETOUBLON OLIVIER C 73 4:29:25 0:45:29
228 471 DECAMME DAVID B 74 4:29:27 0:45:31
229 548 RACODON JEAN PAUL E 8 4:29:33 0:45:37
230 374 BAJARD CHRISTIAN D 29 4:29:33 0:45:37
231 448 VERON REMI A 41 4:29:36 0:45:40
232 211 BORRETTI YOANN A 42 4:29:44 0:45:48
233 470 CAZENAVE-VERGEZ LOÏC B 75 4:30:17 0:46:21
234 488 TRAVERSINO YVES D 30 4:30:24 0:46:28
235 263 CELLIER JEAN-MICHEL C 74 4:30:35 0:46:39
236 466 AUBERT LAURENT C 75 4:30:39 0:46:43
237 104 MARIAUD JEROME C 76 4:30:50 0:46:54
238 542 ECHALLIER FABRICE B 76 4:30:50 0:46:54
239 341 SERMET CHRISTOPHE B 77 4:30:51 0:46:55
240 582 BRION MATHIEU B 78 4:31:00 0:47:04
241 57  ?  ?  ? 2 4:31:14 0:47:18
242 652 CHABERT THIERRY D 31 4:31:15 0:47:19
243 602 CHAROLLAIS PHILIPPE C 77 4:31:17 0:47:21
244 480 BRETON ERIC D 32 4:31:55 0:47:59
245 680 BILLOT D 33 4:31:57 0:48:01
246 574 CARA GUILLAUME A 43 4:31:59 0:48:03
247 44 PICAUD CHRISTIAN D 34 4:32:00 0:48:04
248 294 JACOB NICOLAS A 44 4:32:00 0:48:04
249 558 ALLONGUE BRUNO C 78 4:32:03 0:48:07
250 559 GAERING STÉPHANE B 79 4:32:04 0:48:08
251 456 NOE PIERRE B 80 4:32:07 0:48:11
252 308 VAUTIER KÉVIN A 45 4:32:12 0:48:16
253 484 MAUGUIN PHILIPPE C 79 4:32:56 0:49:00
254 605 COMMERÇON GEORGES B 81 4:32:57 0:49:01
255 350 DARRET NICOLAS B 82 4:32:58 0:49:02
256 233 HARNIEH ALEXANDRE A 46 4:33:06 0:49:10
257 624 BRAUNWALD PHILIPPE C 80 4:33:14 0:49:18
258 305 GILLIER ANTOINE C 81 4:33:16 0:49:20
259 619 MAURIER FRANK C 82 4:33:50 0:49:54
260 174 FALCONNET PIERRE ALAIN B 83 4:34:08 0:50:12
261 377 MASSET NICOLAS A 47 4:34:08 0:50:12
262 572 DIBETTA FRANCOIS C 83 4:34:09 0:50:13
263 469 BUFFET SYLVAIN C 84 4:34:13 0:50:17
264 403 BOUSSANT CHRISTIAN E 9 4:34:18 0:50:22
265 423 ROCH BRUNO C 85 4:34:21 0:50:25
266 637 JIMENEZ NOEL D 35 4:34:24 0:50:28
267 612 DENURRA LOUIS D 36 4:34:26 0:50:30
268 328 BIGOT BERNARD C 86 4:35:03 0:51:07
269 153 GENITONI EMMANUEL C 87 4:35:04 0:51:08
270 529 LACHAVANNE JEAN-MARC C 88 4:35:06 0:51:10
271 531 BOULIN OLIVIER D 37 4:35:34 0:51:38
272 293 COLLY FABRICE B 84 4:35:35 0:51:39
273 205 BOUVARD ANDRÉ C 89 4:35:42 0:51:46
274 644 MURTIN ERIC C 90 4:36:13 0:52:17
275 514 CHAVAILLAZ YVES C 91 4:36:30 0:52:34
276 443 BOUCHERON RICHARD C 92 4:37:02 0:53:06
277 292 LEFEBVRE JULIEN B 85 4:37:02 0:53:06
278 634 HANTZ JACQUES D 38 4:37:02 0:53:06
279 655 ALBOUSSIERE JEAN D 39 4:37:02 0:53:06
280 394 D’ASCOLI JEAN-PIERRE C 93 4:37:02 0:53:06
281 252 COSTE MAXIME B 86 4:37:03 0:53:07
282 329 D ARMANCOURT FRANCOIS D 40 4:37:03 0:53:07
283 553 BOURDON PIERRE C 94 4:37:04 0:53:08
284 271 UGHETTO RENAUD A 48 4:37:16 0:53:20
285 585 DEFFAYET LAURENT C 95 4:37:39 0:53:43
286 678 MOUTONS PIERRE C 96 4:38:06 0:54:10
287 346 AUDARD JEAN-CHRISTOPHE B 87 4:38:06 0:54:10
288 500 VALENTIN LUDOVIC B 88 4:38:11 0:54:15
289 88 SANTER ANNE-PAULINE W1 1 4:38:13 0:54:17
290 477 KINET PATRICK C 97 4:38:14 0:54:18
291 123 HARNOIS CLÉMENTINE W1 2 4:38:14 0:54:18
292 272 GRAND THIERRY B 89 4:38:16 0:54:20
293 625 COUSINA MATHIEU A 49 4:38:40 0:54:44
294 48 VILLACAMPA SYLVAIN A 50 4:38:41 0:54:45
295 616 CHRISTOUAN LIONEL B 90 4:38:41 0:54:45
296 596 JEAN DIT PANNEL WILLIAM E 10 4:38:42 0:54:46
297 165 GENLOT FRANCOIS B 91 4:38:42 0:54:46
298 369 FELIX OLIVIER B 92 4:38:42 0:54:46
299 315 MARION PATRICK D 41 4:39:20 0:55:24
300 415 VAUCHIER LUC C 98 4:39:20 0:55:24
301 581 GAVAGNACH JULIEN A 51 4:39:24 0:55:28
302 181 BASSERY ANDRE E 11 4:39:29 0:55:33
303 673 CERRON ERIC A 52 4:39:30 0:55:34
304 627 LELAN RODRIGUE B 93 4:39:31 0:55:35
305 544 GOMEZ DANIEL C 99 4:39:31 0:55:35
306 518 DARGET LACOSTE CLAUDE C 100 4:39:32 0:55:36
307 333 BIZIERES MICHEL E 12 4:39:32 0:55:36
308 265 BOUCLIER PHILIPPE D 42 4:39:32 0:55:36
309 530 LAPALONCY DAVID B 94 4:39:37 0:55:41
310 631 LINNOT CYRIL B 95 4:39:45 0:55:49
311 208 CREUZENET CLAUDE B 96 4:39:45 0:55:49
312 416 RAVIER SEBASTIEN A 53 4:39:47 0:55:51
313 370 BOUILLET PIERRE D 43 4:39:55 0:55:59
314 36 COURTEIX OLIVIER B 97 4:39:57 0:56:01
315 563 DUVERT JEAN MICHEL E 13 4:39:58 0:56:02
316 639 DECRENISSE THIERRY D 44 4:40:01 0:56:05
317 557 VALENTIN JEAN-MARC C 101 4:40:20 0:56:24
318 307 DEFRANCE GILLES E 14 4:40:22 0:56:26
319 21 VERROT PATRICK C 102 4:40:32 0:56:36
320 510 RUEDIN XAVIER D 45 4:40:42 0:56:46
321 302 FRIEDLI ISABELLE W1 3 4:40:43 0:56:47
322 526 PETITJEAN CHRISTOPHE C 103 4:40:56 0:57:00
323 492 DURAND PHILIPPE C 104 4:40:59 0:57:03
324 188 BUTTARD MANUEL B 98 4:41:10 0:57:14
325 287 PATRICELLI REGIS A 54 4:41:18 0:57:22
326 412 SALOMON NICOLAS B 99 4:41:20 0:57:24
327 691 FROMENT LUDOVIC I 5 4:41:56 0:58:00
328 498 VAN RHIJN RUDOLF D 46 4:41:58 0:58:02
329 409 KOPP JEAN-CLAUDE D 47 4:43:01 0:59:05
330 247 GOLBERY PIERRE-EMMANUEL C 105 4:43:28 0:59:32
331 435 DACHÉ GRÉGORY A 55 4:43:34 0:59:38
332 413 CAPRA HERVE C 106 4:43:34 0:59:38
333 249 SARTELET JACQUES C 107 4:43:36 0:59:40
334 400 PRADEL SEBASTIEN B 100 4:43:49 0:59:53
335 590 RONDOT DAVID B 101 4:44:15 1:00:19
336 447 CIGOLOTTI MICHEL C 108 4:44:16 1:00:20
337 256 KAMARAD LIONEL C 109 4:44:42 1:00:46
338 301 MARCHAND JEROME B 102 4:44:55 1:00:59
339 690 MASLIAM GILLES C 110 4:45:13 1:01:17
340 599 BOTTO JEAN-LUC D 48 4:45:14 1:01:18
341 61 ESPOSITO SALVATORE C 111 4:45:28 1:01:32
342 549 GRANDJEAN XAVIER A 56 4:45:28 1:01:32
343 451 CRETOUX PIERRE C 112 4:45:31 1:01:35
344 251 LEFEVRE FRANÇOIS C 113 4:45:31 1:01:35
345 621 COSSOUL JEAN PIERRE D 49 4:45:32 1:01:36
346 168 PIFFERETTI ALLESSANDRO B 103 4:46:11 1:02:15
347 618 MAYONOVE NICOLAS B 104 4:46:20 1:02:24
348 643 DEGRUNE FABIAN A 57 4:46:41 1:02:45
349 506 TRUMEAU SÉBASTIEN B 105 4:46:42 1:02:46
350 594 ACITO GAETAN C 114 4:46:52 1:02:56
351 669 BOURGEOIS JACKY E 15 4:47:10 1:03:14
352 393 MAILLON GÉRARD D 50 4:47:11 1:03:15
353 658 REYNOND CLAUDE C 115 4:47:11 1:03:15
354 185 CHANGEA NICOLAS B 106 4:47:13 1:03:17
355 562 ALMERAS JEAN MARC D 51 4:47:14 1:03:18
356 149 MONTIGNY ALAIN H 1 4:47:44 1:03:48
357 486 BOURRAT ROBERT C 116 4:47:44 1:03:48
358 344 LABAT ALAIN D 52 4:47:56 1:04:00
359 224 GOESSEN PASCAL C 117 4:48:47 1:04:51
360 485 SAMBARIN JEAN FELIX C 118 4:48:47 1:04:51
361 320 CHATEL ERIC C 119 4:48:47 1:04:51
362 608 RIAL RENE E 16 4:48:50 1:04:54
363 635 DEJONGHE LUDOVIC B 107 4:49:03 1:05:07
364 18 TRIOLO PHILIPPE D 53 4:49:40 1:05:44
365 700 BONNAMY GREGORY B 108 4:49:46 1:05:50
366 288 MOTSCHWILLER YAN C 120 4:49:48 1:05:52
367 190 FEYTONS PATRICK E 17 4:49:53 1:05:57
368 331 SIMONOT LAURENT C 121 4:49:55 1:05:59
369 275 HENNEBO SÉBASTIEN C 122 4:49:58 1:06:02
370 314 VENET MATTHIEU B 109 4:49:58 1:06:02
371 176 DARRAILLAN VINCENT B 110 4:50:59 1:07:03
372 650 FLEURIER MARC D 54 4:51:02 1:07:06
373 682 REYNAUD JEAN CHRISTOPHE A 58 4:51:02 1:07:06
374 372 SICARDI-BOGA ROBERT C 123 4:51:14 1:07:18
375 318 OESTEREICH RAPHAEL E 18 4:51:15 1:07:19
376 687 BOURBONNAIS FRED C 124 4:51:15 1:07:19
377 130 RAVUSSIN FRANÇOIS E 19 4:51:17 1:07:21
378 462 FILAINE ERIC D 55 4:51:21 1:07:25
379 666 DECHENAUX BERNARD D 56 4:51:36 1:07:40
380 368 BEQUE THIERRY D 57 4:51:36 1:07:40
381 216 DERAIN DOMINIQUE D 58 4:51:36 1:07:40
382 15 HOMO FRANCK A 59 4:51:37 1:07:41
383 33 LANCON PATRICK D 59 4:51:37 1:07:41
384 508 JAUDAUX ERIC D 60 4:51:38 1:07:42
385 494 GRANDCLAUDE GERARD D 61 4:51:54 1:07:58
386 455 FRITSCH JEAN PAUL C 125 4:51:54 1:07:58
387 342 MIAS CÉLINE W1 4 4:52:02 1:08:06
388 465 RIGNOL JEAN YVES C 126 4:52:02 1:08:06
389 268 RUIZ ALAIN E 20 4:52:40 1:08:44
390 579 LAURENT ALAIN D 62 4:52:42 1:08:46
391 589 GIRIN BERNARD D 63 4:52:43 1:08:47
392 452  ?  ?  ? 3 4:52:44 1:08:48
393 689 DELETOMBE PHILIPPE D 64 4:52:45 1:08:49
394 566 JANET THIERRY C 127 4:53:02 1:09:06
395 164 ORAIN PHILIPPE D 65 4:53:10 1:09:14
396 525 FLORGA RAMUNTXO B 111 4:53:18 1:09:22
397 463 GLEIZAL HUMPHREY D 66 4:53:20 1:09:24
398 573 FEUILLET JACQUES E 21 4:53:43 1:09:47
399 516 MARCOT CHRISTIAN C 128 4:53:44 1:09:48
400 677 GRILLET JEAN PAUL B 112 4:53:44 1:09:48
401 431 CORGIER EMMANUEL C 129 4:54:08 1:10:12
402 353 MAT JACQUES E 22 4:54:22 1:10:26
403 695 BRUINSMA RADBOUD C 130 4:55:13 1:11:17
404 450 WEBER SERGE E 23 4:55:18 1:11:22
405 277 PARECELLIER PHILIPPE D 67 4:55:18 1:11:22
406 382 VINCENT BERNARD D 68 4:55:31 1:11:35
407 411 BERTRAND CLAUDE C 131 4:55:32 1:11:36
408 410 MATTERN BERNARD D 69 4:55:33 1:11:37
409 336 AUVITU LAURENT C 132 4:55:33 1:11:37
410 163 PUGEAT FLORENT B 113 4:56:10 1:12:14
411 543 LADAUIERE PHILIPPE C 133 4:56:15 1:12:19
412 100 GALLO MONIQUE W2 2 4:56:20 1:12:24
413 332 RUSSIAS JACQUES E 24 4:56:22 1:12:26
414 505 BENCE GRAHAM C 134 4:56:45 1:12:49
415 472 LABROSSE THOMAS A 60 4:57:01 1:13:05
416 654 TARDY JEAN PIERRE C 135 4:57:39 1:13:43
417 24 THOMAS THIERRY C 136 4:57:56 1:14:00
418 661 AMART AISSA D 70 4:57:56 1:14:00
419 407 GEOFFRAY MARC C 137 4:57:57 1:14:01
420 468 WINTZ MARC B 114 4:58:38 1:14:42
421 140 LEBEAUPIN SOPHIE W2 3 4:59:05 1:15:09
422 536 CRASSARD HUBERT E 25 4:59:06 1:15:10
423 86 GOMBERT PHILIPPE C 138 4:59:06 1:15:10
424 406 PELLETIER CHRISTIAN D 71 4:59:06 1:15:10
425 457 ESNAULT PHILIPPE C 139 4:59:44 1:15:48
426 495 EHRLER BERNARD E 26 4:59:46 1:15:50
427 535 MOUETTE EDOUARD A 61 5:00:34 1:16:38
428 598 SUCAUD JEAN CLAUDE D 72 5:01:43 1:17:47
429 478 CHANTEUR JOSE C 140 5:01:44 1:17:48
430 595 ZOPPARD PATRICK C 141 5:01:50 1:17:54
431 107 RESSEGUIER DENIS C 142 5:02:56 1:19:00
432 373 CHASTEL ALAIN E 27 5:02:57 1:19:01
433 418 PRADEL STEPHANE B 115 5:03:03 1:19:07
434 47 MALLET PATRICK E 28 5:03:09 1:19:13
435 560 SANNIER JEAN LOUIS E 29 5:03:12 1:19:16
436 220 MACAGNINO PATRICK C 143 5:03:12 1:19:16
437 300 ARGUEL BERNARD E 30 5:03:34 1:19:38
438 532 HATTAT CLAUDE D 73 5:03:36 1:19:40
439 611 VIEUX BERNARD D 74 5:03:41 1:19:45
440 578 BOSCH CHRISTIAN D 75 5:04:03 1:20:07
441 95 COLLARD CHRISTOPHE C 144 5:04:09 1:20:13
442 568 VALLEE PHILIPPE C 145 5:04:13 1:20:17
443 668 FRONTEAU JEAN MARC C 146 5:04:36 1:20:40
444 338 HALTER NELLY W1 5 5:04:52 1:20:56
445 22 ROBERT LUC C 147 5:04:53 1:20:57
446 513 JALIER GUILLAUME B 116 5:05:14 1:21:18
447 597 PERCHE JEAN MICHEL C 148 5:05:33 1:21:37
448 645 MORAND FABRICE D 76 5:05:38 1:21:42
449 255 VIVOT GERALD B 117 5:05:49 1:21:53
450 442 CAUCHY PATRICK D 77 5:07:16 1:23:20
451 617 DITOMA NICOLAS C 149 5:08:23 1:24:27
452 159 NASTASI PHILIPPE C 150 5:09:41 1:25:45
453 693 SORIN MICHEL C 151 5:09:45 1:25:49
454 433 GLAIZAL STEPHANE D 78 5:10:05 1:26:09
455 17 XAYSONGKHAM SIRISAK C 152 5:10:07 1:26:11
456 479 VELIEN JEROME B 118 5:10:08 1:26:12
457 528 GHÉRARDI JOSEPH D 79 5:10:17 1:26:21
458 389 ROUX ANTHONY B 119 5:10:23 1:26:27
459 321 GUIGONNAND GERARD E 31 5:10:23 1:26:27
460 489 BERTHET ERIC C 153 5:10:28 1:26:32
461 640 SALLIN PHILIPPE C 154 5:11:01 1:27:05
462 586 FAURE GILLES D 80 5:11:03 1:27:07
463 166 DUVERNEYPRET BERNARD E 32 5:11:18 1:27:22
464 684 BOILLON CATHERINE W3 1 5:11:21 1:27:25
465 685 BOILLON MARCEL D 81 5:11:22 1:27:26
466 445 WALLACH MATHIEU A 62 5:12:10 1:28:14
467 556 DAMON PHILIPPE C 155 5:12:57 1:29:01
468 628 MORELFOURRIER DOMINIQUE D 82 5:12:57 1:29:01
469 446 LAMBERT PIERRE D 83 5:13:31 1:29:35
470 306 CHESSE FABRICE C 156 5:13:33 1:29:37
471 408 PATRICELLI ARMAND C 157 5:13:40 1:29:44
472 620 CONDEMINE FABIEN B 120 5:14:08 1:30:12
473 539 CONY MICHEL C 158 5:14:32 1:30:36
474 524 GALIAY NICOLAS B 121 5:14:55 1:30:59
475 648 EVREUX DOMINIQUE C 159 5:14:56 1:31:00
476 440 LABONDE FABRICE C 160 5:15:12 1:31:16
477 601 POINT FREDERIC C 161 5:15:13 1:31:17
478 179 RECHAK HIDARE B 122 5:15:32 1:31:36
479 325 DREMIERE YANN C 162 5:16:11 1:32:15
480 686 MARGUIN JEAN MICHEL C 163 5:16:19 1:32:23
481 162 DEMEURE ARNAUD B 123 5:16:46 1:32:50
482 396 MEYSSONNIER BERNARD D 84 5:16:46 1:32:50
483 299 OVISTE JEAN MARC D 85 5:18:06 1:34:10
484 242 BOILAUD PASCAL C 164 5:18:07 1:34:11
485 365 DUCOUX PATRICK D 86 5:18:20 1:34:24
486 519 ROCHEDY THIERRY D 87 5:18:35 1:34:39
487 16 KLEIN JEAN FRANCOIS C 165 5:19:48 1:35:52
488 436 BLANC PHILIPPE C 166 5:19:56 1:36:00
489 428 SAUVEPLANE MARC C 167 5:19:56 1:36:00
490 567 CORONADO JEAN PIERRE D 88 5:19:57 1:36:01
491 681 CHAZOTTIER DAMIEN B 124 5:19:57 1:36:01
492 291 ANDRE JACQUES E 33 5:20:40 1:36:44
493 664 SAGNOL MARC C 168 5:21:07 1:37:11
494 665 BRUNON DOMINIQUE C 169 5:21:10 1:37:14
495 386 ZUIANO FABRICE D 89 5:21:12 1:37:16
496 384 LHUILLIER FRANCK C 170 5:22:30 1:38:34
497 201 GEORG THIERRY C 171 5:22:38 1:38:42
498 248 BERTHET STÉPHANE C 172 5:23:09 1:39:13
499 499 COPPEL MAUD W1 6 5:23:25 1:39:29
500 545 LACROIX JEROME B 125 5:23:28 1:39:32
501 274 BREHIN CHRISTIAN D 90 5:23:37 1:39:41
502 337 CHARRAF EL MAHJOUB C 173 5:24:15 1:40:19
503 438 PENIN JEAN BAPTISTE B 126 5:24:15 1:40:19
504 186 LAUGEROTTE FRANCOIS D 91 5:24:33 1:40:37
505 359 CURT NICOLAS B 127 5:25:36 1:41:40
506 642 VAN BAALEN MAARTEN C 174 5:25:39 1:41:43
507 358 BOYER ALBERT C 175 5:25:49 1:41:53
508 254 KNICKERBOCKER ABIGAIL W1 7 5:25:49 1:41:53
509 607 BURKHART JEAN FRANCOIS C 176 5:25:51 1:41:55
510 83 DUPONT DOMINIQUE C 177 5:25:54 1:41:58
511 387 THIAULT FREDERIC B 128 5:26:44 1:42:48
512 196 RAEPSAET BRUNO C 178 5:27:00 1:43:04
513 90 DUBUIS LAURA W1 8 5:27:11 1:43:15
514 503 DUTTON KEVIN C 179 5:28:02 1:44:06
515 397 SCHOTT PATRICK D 92 5:28:03 1:44:07
516 398 MOUCHEROUD DIMITRI B 129 5:28:03 1:44:07
517 671 TESI PIERRE C 180 5:28:09 1:44:13
518 284 DEBANT DIDIER C 181 5:28:25 1:44:29
519 223 NOAILLON JEAN PAUL E 34 5:28:25 1:44:29
520 270 LEFEVRE DENIS C 182 5:28:25 1:44:29
521 276 COLLARD PATRICK E 35 5:28:26 1:44:30
522 319 TOMMELLIER JEAN-CLAUDE E 36 5:28:27 1:44:31
523 243 EFFERTZ ALEXANDRE A 63 5:28:31 1:44:35
524 476 MARCHAND EMMANUEL PIERRE C 183 5:28:33 1:44:37
525 584 LAUPER CLAUDE E 37 5:29:52 1:45:56
526 405 LACOSTE JEAN LUC C 184 5:30:03 1:46:07
527 430 BISIAUX CHRISTIAN C 185 5:31:07 1:47:11
528 638 BARLERIN MICHEL D 93 5:32:41 1:48:45
529 246 RUPP CHRISTOPHER B 130 5:33:19 1:49:23
530 212 FRANCOIS MARTIAL B 131 5:33:41 1:49:45
531 154 GOODBODY JAMES B 132 5:33:44 1:49:48
532 490 MAZET HERVÉ B 133 5:33:53 1:49:57
533 537 RABUT PHILIPPE D 94 5:34:14 1:50:18
534 467 MANSON LUC A 64 5:34:15 1:50:19
535 660 PITISCI HERVE C 186 5:34:15 1:50:19
536 427 HADOUX LUC D 95 5:34:16 1:50:20
537 376 REMELSKI CHRISTOPHE B 134 5:35:18 1:51:22
538 194 MARCOT JEAN-LUC D 96 5:36:16 1:52:20
539 215 DUFRAISSE DIDIER D 97 5:36:17 1:52:21
540 569 MARECHAL JACQUES D 98 5:36:50 1:52:54
541 213 DERBRE DIDIER D 99 5:37:14 1:53:18
542 649 DESCHAMP OLIVIER C 187 5:37:27 1:53:31
543 219 PERROT DIDIER E 38 5:38:10 1:54:14
544 281 DUVINAGE JEAN E 39 5:39:53 1:55:57
545 260 PERNY GERARD C 188 5:40:48 1:56:52
546 182 DESSEREY JOCELYNE W3 2 5:41:16 1:57:20
547 183 BEAUDOIN MICHEL D 100 5:41:17 1:57:21
548 290 GODEL SEBASTIEN C 189 5:42:00 1:58:04
549 187 LAMULLE JEROME B 135 5:42:10 1:58:14
550 197 GADIOU PIERRE I 6 5:43:14 1:59:18
551 587 MAUME JACQUES D 101 5:45:54 2:01:58
552 517 GERFAUD-VALENTIN FRANCOIS D 102 5:46:44 2:02:48
553 257 MOULINEAU CLAUDE E 40 5:47:06 2:03:10
554 160 LAVAL LAVAL B 136 5:48:14 2:04:18
555 23 VUILLOD ROBERT E 41 5:48:21 2:04:25
556 360 DESTAGNOL MICHEL C 190 5:48:58 2:05:02
557 378 BROUZES DIDIER C 191 5:50:33 2:06:37
558 169 ALBERGNE FLORENT A 65 5:50:50 2:06:54
559 250 DONEAUX JEAN-LOUIS E 42 5:51:36 2:07:40
560 236 DOUCERAIN ANTOINE C 192 5:52:11 2:08:15
561 327 JOUBERT PAUL E 43 5:52:55 2:08:59
562 285 DEBANT SOPHIE W2 4 5:53:41 2:09:45
563 31 MOUSSON CHRISTIAN D 103 5:53:53 2:09:57
564 286 GONTHIER DANIEL D 104 5:54:22 2:10:26
565 177 MARIOTAT JEAN CHRISTOPHE C 193 5:54:36 2:10:40
566 551 MANGON PASCALE W2 5 5:55:01 2:11:05
567 303 DESMIS ANTOINE C 194 5:55:01 2:11:05
568 313 BARBIER VIRGINIE W1 9 5:55:01 2:11:05
569 555 BOHN OLIVIER C 195 5:55:02 2:11:06
570 564 MERLEY CEDRIC B 137 5:55:02 2:11:06
571 357 LAURENT BRUNO C 196 5:57:26 2:13:30
572 304 POULY LIONEL C 197 5:58:51 2:14:55
573 606 PESENTI OLIVIER C 198 5:59:43 2:15:47
574 527 GIMENEZ FRANÇOIS C 199 6:02:37 2:18:41
575 278 BERNELIN JEAN-PIERRE D 105 6:02:53 2:18:57
576 334 ACOULON ANTOINE B 138 6:05:45 2:21:49
577 647 DESBORDES Thierry C 200 6:07:39 2:23:43
578 434 ROLLET JÉRÔME B 139 6:07:40 2:23:44
579 483 MOULINEAU DAVID C 201 6:10:11 2:26:15
580 184 PORCHER YVES E 44 6:12:26 2:28:30
581 632 PEYRARD GILLES C 202 6:12:26 2:28:30
582 512 DEGRUSON SAMUEL B 140 6:13:31 2:29:35
583 633 PAGANI DAVID B 141 6:15:54 2:31:58
584 35 PAGOT ALAIN D 106 6:16:41 2:32:45
585 615 DURR BERTRAND C 203 6:16:42 2:32:46
586 241 FABRE PHILIPPE C 204 6:17:15 2:33:19
587 280 FABRE RÉGIS B 142 6:17:15 2:33:19
588 245 MOUNARD XAVIER C 205 6:17:15 2:33:19
589 546 GAUTHIER FREDERIC C 206 6:17:50 2:33:54
590 547 BOSC RICHARD C 207 6:17:51 2:33:55
591 538 CHARBON FRANCK C 208 6:17:53 2:33:57
592 541 BERNARD PATRICIA W3 3 6:17:53 2:33:57
593 501 GRIFTI MARC C 209 6:17:54 2:33:58
594 239 DAVIES WILLIAM C 210 6:18:36 2:34:40
595 203 DARRIEUTORT XAVIER B 143 6:18:57 2:35:01
596 34 LEBRUN ANNE W3 4 6:19:31 2:35:35
597 697 COUCHOUD FABRICE B 144 6:22:48 2:38:52
598 234 PAQUIER PATRICK D 107 6:27:02 2:43:06
599 696 TALZAUX LAURENT C 211 6:33:25 2:49:29
600 699 CHAPELAND DAVID D 108 6:36:26 2:52:30
601 570 BECK MARTIAL E 45 6:36:39 2:52:43
602 19 LANQUETIN JEAN MICHEL D 109 6:40:41 2:56:45

Haut 









Haut  
 Административная часть   Авторские права-Copyright: Жмите сюда Чтобы прочитать !